Voltar ao catálogo

FENGYUN 1C DEB

AtivoSSO
NORAD 30852·DEBRIS·🇨🇳 China

Lançado May 10, 1999 de Taiyuan Satellite Launch Center

Loading…

Próximas Passagens (próximas 24 horas)

TLE

AtualizadoSource: Space-Track

Época: Sep 14, 2026, 12:23 UTC

1 30852U 99025AWN 26257.51624201  .00000427  00000-0  25862-3 0  9995
2 30852  98.7215 272.2522 0056553 172.0976 188.1100 14.10700758  2622

Acompanhe FENGYUN 1C DEB em tempo real com AllMySat

Download on the App Store